Location: Bauerbach
(50.4985°N, 10.3912°E)
Time: 05:50:50
(UTC+00:00)

Cosmos 2344 - Pass Details

Date: 13 January 2026
Orbit: 1195 x 3047 km, 63.3° (Epoch: 17 February)

Event Time Altitude Azimuth Distance (km) Brightness Sun altitude
Exits shadow 06:30:19 - 312° (NW) 3,489 5.3 -7.0°
Reaches altitude 10° 06:31:13 10° 315° (NW) 3,189 5.1 -6.8°
Maximum altitude 06:38:21 46° 28° (NNE) 1,794 4.4 -5.8°
Drops below altitude 10° 06:47:16 10° 100° (E) 3,970 7.6 -4.6°
Sets 06:51:04 0° 107° (ESE) 5,221 8.9 -4.0°
